When you browse on this site, cookies collect data to enhance your experience and personalize the content and advertising you see.
Visit our Privacy Policy to learn more. By continuing to use the site, you agree to this use of cookies and data.

Hourly Weather Zastav'ya

Today, 10 July, Friday

Time Temperature Precipitation Wind Pressure Humidity
00:00 +14°C° 0 mm 2 mps 745 mmHg 90%
01:00 +14°C° 0 mm 2 mps 745 mmHg 92%
02:00 +13°C° 0 mm 2 mps 745 mmHg 93%
03:00 +13°C° 0 mm 3 mps 745 mmHg 93%
04:00 +13°C° 0 mm 3 mps 745 mmHg 92%
05:00 +13°C° 0 mm 3 mps 745 mmHg 92%
06:00 +15°C° 0 mm 4 mps 745 mmHg 87%
07:00 +17°C° 0 mm 4 mps 745 mmHg 82%
08:00 +19°C° 0 mm 5 mps 745 mmHg 77%
09:00 +21°C° 0 mm 5 mps 745 mmHg 74%
10:00 +22°C° 0 mm 5 mps 745 mmHg 72%
11:00 +25°C° 0 mm 5 mps 745 mmHg 69%
12:00 +26°C° 0.1 mm 5 mps 744 mmHg 68%
13:00 +27°C° 0.1 mm 5 mps 744 mmHg 67%
14:00 +27°C° 0.1 mm 5 mps 744 mmHg 65%
15:00 +27°C° 0.1 mm 5 mps 744 mmHg 67%
16:00 +27°C° 0.1 mm 4 mps 744 mmHg 68%
17:00 +27°C° 0.1 mm 4 mps 744 mmHg 70%
18:00 +26°C° 0.1 mm 4 mps 743 mmHg 76%
19:00 +25°C° 0.1 mm 4 mps 743 mmHg 81%
20:00 +24°C° 0.1 mm 3 mps 743 mmHg 87%
21:00 +22°C° 0 mm 3 mps 743 mmHg 88%
22:00 +21°C° 0 mm 4 mps 744 mmHg 89%
23:00 +20°C° 0 mm 4 mps 744 mmHg 90%

Tomorrow, 11 July, Saturday

Time Temperature Precipitation Wind Pressure Humidity
00:00 +20°C° 0 mm 3 mps 744 mmHg 90%
01:00 +19°C° 0 mm 3 mps 744 mmHg 89%
02:00 +19°C° 0 mm 3 mps 744 mmHg 88%
03:00 +18°C° 0 mm 3 mps 744 mmHg 89%
04:00 +18°C° 0 mm 3 mps 744 mmHg 89%
05:00 +18°C° 0 mm 3 mps 744 mmHg 89%
06:00 +20°C° 0 mm 3 mps 744 mmHg 86%
07:00 +21°C° 0 mm 3 mps 744 mmHg 82%
08:00 +24°C° 0 mm 3 mps 744 mmHg 78%
09:00 +25°C° 0 mm 3 mps 744 mmHg 74%
10:00 +27°C° 0 mm 3 mps 744 mmHg 69%
11:00 +28°C° 0 mm 2 mps 744 mmHg 65%
12:00 +29°C° 0 mm 3 mps 744 mmHg 63%
13:00 +30°C° 0 mm 3 mps 744 mmHg 60%
14:00 +30°C° 0 mm 3 mps 744 mmHg 58%
15:00 +30°C° 0.2 mm 3 mps 743 mmHg 62%
16:00 +29°C° 0.2 mm 3 mps 743 mmHg 65%
17:00 +29°C° 0.2 mm 4 mps 743 mmHg 69%
18:00 +27°C° 1.3 mm 3 mps 743 mmHg 75%
19:00 +25°C° 1.3 mm 3 mps 743 mmHg 81%
20:00 +23°C° 1.3 mm 2 mps 743 mmHg 87%
21:00 +21°C° 0.3 mm 2 mps 743 mmHg 89%
22:00 +20°C° 0.3 mm 3 mps 744 mmHg 92%
23:00 +19°C° 0.3 mm 3 mps 744 mmHg 95%

Day after tomorrow, 12 July, Sunday

Time Temperature Precipitation Wind Pressure Humidity
00:00 +18°C° 0 mm 3 mps 743 mmHg 95%
01:00 +18°C° 0 mm 3 mps 743 mmHg 96%
02:00 +18°C° 0 mm 3 mps 743 mmHg 96%
03:00 +17°C° 0 mm 3 mps 743 mmHg 96%
04:00 +17°C° 0 mm 3 mps 743 mmHg 96%
05:00 +17°C° 0 mm 3 mps 743 mmHg 96%
06:00 +17°C° 0 mm 3 mps 743 mmHg 95%
07:00 +17°C° 0 mm 4 mps 743 mmHg 94%
08:00 +17°C° 0 mm 4 mps 743 mmHg 94%
09:00 +15°C° 0.1 mm 4 mps 743 mmHg 93%
10:00 +15°C° 0.1 mm 4 mps 743 mmHg 93%
11:00 +15°C° 0.1 mm 4 mps 743 mmHg 93%
12:00 +14°C° 0.3 mm 5 mps 743 mmHg 93%
13:00 +14°C° 0.3 mm 6 mps 743 mmHg 93%
14:00 +13°C° 0.3 mm 6 mps 743 mmHg 93%
15:00 +11°C° 0.7 mm 7 mps 743 mmHg 93%
16:00 +10°C° 0.7 mm 7 mps 743 mmHg 94%
17:00 +9°C° 0.7 mm 7 mps 743 mmHg 95%
18:00 +9°C° 2.1 mm 7 mps 744 mmHg 95%
19:00 +9°C° 2.1 mm 7 mps 744 mmHg 95%
20:00 +9°C° 2.1 mm 6 mps 744 mmHg 94%
21:00 +9°C° 0.4 mm 6 mps 744 mmHg 94%
22:00 +9°C° 0.4 mm 6 mps 744 mmHg 94%
23:00 +9°C° 0.4 mm 5 mps 744 mmHg 93%

13 July, Monday

Time Temperature Precipitation Wind Pressure Humidity
00:00 +9°C° 0 mm 5 mps 744 mmHg 93%
01:00 +9°C° 0 mm 5 mps 744 mmHg 93%
02:00 +9°C° 0 mm 6 mps 744 mmHg 92%
03:00 +9°C° 0.2 mm 5 mps 744 mmHg 93%
04:00 +9°C° 0.2 mm 5 mps 744 mmHg 95%
05:00 +10°C° 0.2 mm 4 mps 743 mmHg 96%
06:00 +11°C° 0 mm 4 mps 743 mmHg 94%
07:00 +10°C° 0 mm 5 mps 743 mmHg 93%
08:00 +12°C° 0 mm 5 mps 743 mmHg 91%
09:00 +14°C° 0 mm 5 mps 743 mmHg 82%
10:00 +15°C° 0 mm 6 mps 743 mmHg 74%
11:00 +17°C° 0 mm 6 mps 743 mmHg 65%
12:00 +17°C° 0.1 mm 6 mps 743 mmHg 66%
13:00 +17°C° 0.1 mm 6 mps 743 mmHg 67%
14:00 +17°C° 0.1 mm 6 mps 743 mmHg 68%
15:00 +17°C° 0.2 mm 5 mps 742 mmHg 68%
16:00 +17°C° 0.2 mm 5 mps 742 mmHg 69%
17:00 +17°C° 0.2 mm 5 mps 742 mmHg 69%
18:00 +16°C° 0.1 mm 5 mps 742 mmHg 74%
19:00 +15°C° 0.1 mm 4 mps 742 mmHg 79%
20:00 +14°C° 0.1 mm 3 mps 742 mmHg 84%
21:00 +13°C° 0 mm 3 mps 742 mmHg 87%
22:00 +12°C° 0 mm 3 mps 742 mmHg 89%
23:00 +11°C° 0 mm 3 mps 742 mmHg 92%

14 July, Tuesday

Time Temperature Precipitation Wind Pressure Humidity
00:00 +10°C° 0 mm 3 mps 742 mmHg 93%
01:00 +10°C° 0 mm 3 mps 741 mmHg 95%
02:00 +10°C° 0 mm 3 mps 741 mmHg 96%
03:00 +10°C° 0 mm 3 mps 741 mmHg 96%
04:00 +10°C° 0 mm 4 mps 741 mmHg 96%
05:00 +10°C° 0 mm 4 mps 741 mmHg 97%
06:00 +12°C° 0 mm 4 mps 741 mmHg 92%
07:00 +13°C° 0 mm 4 mps 741 mmHg 88%
08:00 +15°C° 0 mm 5 mps 742 mmHg 83%
09:00 +16°C° 0.3 mm 5 mps 742 mmHg 80%
10:00 +17°C° 0.3 mm 6 mps 742 mmHg 76%
11:00 +19°C° 0.3 mm 6 mps 742 mmHg 73%
12:00 +19°C° 0.4 mm 6 mps 741 mmHg 70%
13:00 +20°C° 0.4 mm 6 mps 741 mmHg 68%
14:00 +20°C° 0.4 mm 6 mps 741 mmHg 66%
15:00 +20°C° 0.1 mm 6 mps 741 mmHg 65%
16:00 +20°C° 0.1 mm 5 mps 741 mmHg 65%
17:00 +20°C° 0.1 mm 5 mps 741 mmHg 65%
18:00 +19°C° 0.1 mm 4 mps 741 mmHg 72%
19:00 +17°C° 0.1 mm 4 mps 741 mmHg 78%
20:00 +16°C° 0.1 mm 3 mps 742 mmHg 85%
21:00 +14°C° 0 mm 3 mps 742 mmHg 88%
22:00 +13°C° 0 mm 3 mps 742 mmHg 90%
23:00 +12°C° 0 mm 3 mps 742 mmHg 93%

15 July, Wednesday

Time Temperature Precipitation Wind Pressure Humidity
00:00 +12°C° 0 mm 3 mps 742 mmHg 94%
01:00 +11°C° 0 mm 3 mps 742 mmHg 95%
02:00 +11°C° 0 mm 3 mps 743 mmHg 95%
03:00 +11°C° 0 mm 3 mps 743 mmHg 96%
04:00 +11°C° 0 mm 3 mps 743 mmHg 96%
05:00 +11°C° 0 mm 3 mps 743 mmHg 96%
06:00 +12°C° 0 mm 3 mps 743 mmHg 90%
07:00 +14°C° 0 mm 3 mps 743 mmHg 84%
08:00 +17°C° 0 mm 3 mps 744 mmHg 78%
09:00 +18°C° 0 mm 3 mps 744 mmHg 72%
10:00 +20°C° 0 mm 3 mps 744 mmHg 66%
11:00 +21°C° 0 mm 3 mps 744 mmHg 61%
12:00 +21°C° 0 mm 3 mps 744 mmHg 59%
13:00 +22°C° 0 mm 3 mps 744 mmHg 58%
14:00 +22°C° 0 mm 3 mps 744 mmHg 56%
15:00 +22°C° 0.1 mm 3 mps 744 mmHg 57%
16:00 +22°C° 0.1 mm 3 mps 744 mmHg 58%
17:00 +23°C° 0.1 mm 2 mps 744 mmHg 59%
18:00 +21°C° 0 mm 2 mps 744 mmHg 66%
19:00 +19°C° 0 mm 2 mps 744 mmHg 73%
20:00 +17°C° 0 mm 2 mps 744 mmHg 79%
21:00 +18°C° 0 mm 1 mps 744 mmHg 82%
22:00 +16°C° 0 mm 1 mps 744 mmHg 85%
23:00 +15°C° 0 mm 1 mps 744 mmHg 87%
Show more